This is the latest recevied weather packets stored in our database for station/object NC4J. If no packets are shown the sender has not sent any weather packets the latest 1 day(s).
| Time | Temp. | Humidity | Pressure | Rain* | Wind** | Luminosity | Snow |
|---|---|---|---|---|---|---|---|
| 1778039048 | 15° C | 64% | 1014.8 hPa | 0 mm | 0 m/s | 0 W/m² | - |
| 1778038745 | 15.56° C | 65% | 1015.1 hPa | 0 mm | 0.89 m/s, 137° | 0 W/m² | - |
| 1778038442 | 15.56° C | 64% | 1015.4 hPa | 0 mm | 0.45 m/s, 132° | 0 W/m² | - |
| 1778038139 | 15.56° C | 65% | 1015.2 hPa | 0 mm | 0.45 m/s, 132° | 0 W/m² | - |
| 1778037836 | 15.56° C | 66% | 1015.3 hPa | 0 mm | 0.45 m/s, 132° | 0 W/m² | - |
| 1778037533 | 15.56° C | 66% | 1015.4 hPa | 0 mm | 0.45 m/s, 132° | 0 W/m² | - |
| 1778037230 | 16.11° C | 63% | 1015.2 hPa | 0 mm | 0 m/s | 0 W/m² | - |
| 1778036928 | 16.67° C | 64% | 1015.5 hPa | 0 mm | 0.89 m/s, 133° | 0 W/m² | - |
| 1778036626 | 16.67° C | 58% | 1015.7 hPa | 0 mm | 0 m/s | 0 W/m² | - |
| 1778036322 | 16.67° C | 57% | 1015.7 hPa | 0 mm | 0.45 m/s, 131° | 0 W/m² | - |
| 1778036018 | 16.67° C | 60% | 1015.7 hPa | 0 mm | 0.45 m/s, 133° | 0 W/m² | - |
| 1778035715 | 16.67° C | 58% | 1015.8 hPa | 0 mm | 0.45 m/s, 128° | 0 W/m² | - |
| 1778035412 | 16.67° C | 56% | 1015.8 hPa | 0 mm | 0 m/s | 0 W/m² | - |
| 1778035109 | 16.67° C | 55% | 1015.6 hPa | 0 mm | 0 m/s | 0 W/m² | - |
| 1778034805 | 16.67° C | 56% | 1015.5 hPa | 0 mm | 0.45 m/s, 126° | 0 W/m² | - |
| 1778034502 | 16.67° C | 57% | 1015.1 hPa | 0 mm | 0 m/s | 0 W/m² | - |
| 1778034200 | 16.67° C | 54% | 1015.2 hPa | 0 mm | 0.45 m/s, 126° | 0 W/m² | - |
| 1778033898 | 17.22° C | 59% | 1015 hPa | 0 mm | 0.45 m/s, 116° | 0 W/m² | - |
| 1778033594 | 17.22° C | 55% | 1015.2 hPa | 0 mm | 0.89 m/s, 114° | 0 W/m² | - |
| 1778033291 | 17.78° C | 52% | 1015.2 hPa | 0 mm | 0.45 m/s, 110° | 0 W/m² | - |
| 1778032989 | 17.78° C | 52% | 1015.4 hPa | 0 mm | 0.45 m/s, 107° | 0 W/m² | - |
| 1778032687 | 18.33° C | 50% | 1015.2 hPa | 0 mm | 0.45 m/s, 104° | 0 W/m² | - |
| 1778032384 | 18.33° C | 49% | 1015.2 hPa | 0 mm | 0 m/s | 0 W/m² | - |
| 1778032080 | 18.89° C | 47% | 1015.2 hPa | 0 mm | 0 m/s | 0 W/m² | - |
| 1778031777 | 18.89° C | 48% | 1015.1 hPa | 0 mm | 0.45 m/s, 146° | 0 W/m² | - |
* Rain latest hour (hover to see other rain measurements)
** Current wind speed in m/s (hover to see current wind gust speed)